WMT8585 LROP-EGGW

Flight info

Callsign WMT8585
Flight time N/A
Altitude 36000
Route SOKRU DCT OXDOC DCT ENIMA DCT DEGET DCT ALAMU DCT DITIS DCT OKG DCT VELIS DCT SWALM DCT NOGRO M40 RINIS
Aircraft A321/M-SDE1E2E3FGIJ1J4RWXYZ/LB1G1

Departure

Time N/A
Airport Bucharest Henri Coandă International Airport (LROP)

Arrival

Time 2026-05-06 13:19
Airport London Luton Airport (EGGW)
Time Latitude Longitude Altitude Speed Heading
2026-05-06 12:28 51.35965 6.32954 35878 ft 443 kts 286°
2026-05-06 12:28 51.37912 6.23586 35878 ft 444 kts 286°
2026-05-06 12:29 51.39848 6.14206 35880 ft 443 kts 286°
2026-05-06 12:29 51.41778 6.04821 35875 ft 444 kts 286°
2026-05-06 12:30 51.43700 5.95407 35880 ft 445 kts 286°
2026-05-06 12:30 51.45618 5.85976 35885 ft 445 kts 286°
2026-05-06 12:31 51.47536 5.76540 35893 ft 445 kts 286°
2026-05-06 12:31 51.49441 5.67098 35884 ft 445 kts 286°
2026-05-06 12:32 51.51334 5.57650 35883 ft 445 kts 285°
2026-05-06 12:32 51.53223 5.48195 35909 ft 445 kts 285°
2026-05-06 12:33 51.55106 5.38737 35908 ft 444 kts 285°
2026-05-06 12:33 51.56973 5.29265 35918 ft 445 kts 285°
2026-05-06 12:34 51.58838 5.19792 35913 ft 444 kts 285°
2026-05-06 12:34 51.60704 5.10327 35914 ft 444 kts 285°
2026-05-06 12:35 51.62549 5.00854 35914 ft 443 kts 285°
2026-05-06 12:35 51.64370 4.91445 35912 ft 443 kts 285°
2026-05-06 12:36 51.66197 4.81971 35918 ft 443 kts 285°
2026-05-06 12:36 51.68023 4.72501 35910 ft 443 kts 285°
2026-05-06 12:37 51.69538 4.64556 35903 ft 443 kts 285°
2026-05-06 12:37 51.71338 4.55068 35905 ft 442 kts 285°
2026-05-06 12:38 51.73136 4.45590 35910 ft 442 kts 285°
2026-05-06 12:38 51.74919 4.36168 35909 ft 442 kts 285°
2026-05-06 12:39 51.76699 4.26682 35912 ft 441 kts 285°
2026-05-06 12:39 51.78466 4.17193 35912 ft 441 kts 285°
2026-05-06 12:40 51.80221 4.07706 35917 ft 441 kts 285°
2026-05-06 12:40 51.81975 3.98202 35920 ft 441 kts 285°
2026-05-06 12:41 51.83731 3.88687 35877 ft 442 kts 284°
2026-05-06 12:41 51.84606 3.83912 35368 ft 443 kts 284°
2026-05-06 12:41 51.85475 3.79148 34882 ft 440 kts 284°
2026-05-06 12:42 51.86336 3.74407 34405 ft 439 kts 284°
2026-05-06 12:42 51.87194 3.69665 33939 ft 439 kts 284°
2026-05-06 12:42 51.88051 3.64921 33381 ft 440 kts 285°
2026-05-06 12:42 51.88909 3.60167 32827 ft 441 kts 284°
2026-05-06 12:43 51.89766 3.55400 32290 ft 441 kts 284°
2026-05-06 12:43 51.90559 3.50991 31806 ft 442 kts 284°
2026-05-06 12:43 51.91420 3.46208 31293 ft 443 kts 284°
2026-05-06 12:43 51.92282 3.41400 30789 ft 445 kts 284°
2026-05-06 12:44 51.93137 3.36587 30288 ft 443 kts 284°
2026-05-06 12:44 51.93982 3.31807 29769 ft 439 kts 284°
2026-05-06 12:44 51.94815 3.27083 29195 ft 434 kts 284°
2026-05-06 12:44 51.95642 3.22404 28638 ft 429 kts 284°
2026-05-06 12:45 51.96234 3.17708 28076 ft 422 kts 274°
2026-05-06 12:45 51.96291 3.13066 27639 ft 413 kts 264°
2026-05-06 12:45 51.95702 3.03925 26827 ft 398 kts 263°
2026-05-06 12:46 51.95413 2.99498 26441 ft 392 kts 263°
2026-05-06 12:46 51.95134 2.95206 26169 ft 385 kts 263°
2026-05-06 12:46 51.94852 2.90871 25909 ft 380 kts 263°
2026-05-06 12:46 51.94577 2.86671 25675 ft 379 kts 263°
2026-05-06 12:47 51.94296 2.82428 25423 ft 379 kts 263°
2026-05-06 12:47 51.94012 2.78198 25173 ft 377 kts 263°
2026-05-06 12:47 51.93725 2.73992 24890 ft 374 kts 263°
2026-05-06 12:47 51.93438 2.69815 24602 ft 372 kts 263°
2026-05-06 12:48 51.93155 2.65653 24307 ft 371 kts 263°
2026-05-06 12:48 51.92875 2.61508 24016 ft 370 kts 263°
2026-05-06 12:48 51.92593 2.57380 23728 ft 368 kts 263°
2026-05-06 12:48 51.92309 2.53272 23430 ft 365 kts 262°
2026-05-06 12:49 51.92026 2.49200 23118 ft 364 kts 263°
2026-05-06 12:49 51.91742 2.45136 22838 ft 363 kts 263°
2026-05-06 12:49 51.91455 2.41084 22555 ft 361 kts 262°
2026-05-06 12:49 51.91167 2.37050 22270 ft 360 kts 262°
2026-05-06 12:50 51.90882 2.33031 21996 ft 358 kts 263°
2026-05-06 12:50 51.90661 2.29016 21646 ft 357 kts 265°
2026-05-06 12:50 51.90542 2.25013 21276 ft 355 kts 267°
2026-05-06 12:50 51.90474 2.21026 20910 ft 353 kts 268°
2026-05-06 12:51 51.90421 2.17062 20547 ft 351 kts 268°
2026-05-06 12:51 51.90364 2.13122 20187 ft 349 kts 268°
2026-05-06 12:51 51.90292 2.09201 19829 ft 347 kts 267°
2026-05-06 12:51 51.90206 2.05307 19474 ft 346 kts 267°
2026-05-06 12:52 51.90110 2.01431 19122 ft 344 kts 267°
2026-05-06 12:52 51.90011 1.97571 18756 ft 343 kts 267°
2026-05-06 12:52 51.89945 1.93724 18411 ft 340 kts 272°
2026-05-06 12:52 51.90300 1.89950 18042 ft 339 kts 285°
2026-05-06 12:53 51.91183 1.86420 17947 ft 339 kts 298°
2026-05-06 12:53 51.92528 1.83273 17963 ft 341 kts 309°
2026-05-06 12:53 51.94054 1.80328 17963 ft 342 kts 309°
2026-05-06 12:53 51.95582 1.77372 17961 ft 342 kts 308°
2026-05-06 12:54 51.97109 1.74410 17963 ft 343 kts 308°
2026-05-06 12:54 51.98636 1.71443 17967 ft 342 kts 308°
2026-05-06 12:54 52.00162 1.68478 17968 ft 342 kts 308°
2026-05-06 12:54 52.01690 1.65517 17968 ft 342 kts 308°
2026-05-06 12:55 52.03216 1.62554 17964 ft 342 kts 308°
2026-05-06 12:55 52.04740 1.59585 17968 ft 343 kts 308°
2026-05-06 12:55 52.06267 1.56608 17969 ft 342 kts 308°
2026-05-06 12:55 52.07771 1.53676 17969 ft 343 kts 308°
2026-05-06 12:56 52.09296 1.50700 17972 ft 343 kts 308°
2026-05-06 12:56 52.10820 1.47719 17974 ft 343 kts 308°
2026-05-06 12:56 52.12344 1.44738 17982 ft 342 kts 308°
2026-05-06 12:56 52.13865 1.41756 17989 ft 342 kts 308°
2026-05-06 12:57 52.15278 1.38651 17989 ft 341 kts 298°
2026-05-06 12:57 52.16236 1.35151 17990 ft 338 kts 286°
2026-05-06 12:57 52.16696 1.31408 17991 ft 337 kts 276°
2026-05-06 12:57 52.16980 1.27626 17983 ft 337 kts 277°
2026-05-06 12:58 52.17273 1.23838 17984 ft 337 kts 277°
2026-05-06 12:58 52.17574 1.20051 17986 ft 337 kts 277°
2026-05-06 12:58 52.17878 1.16263 17795 ft 338 kts 277°
2026-05-06 12:58 52.18181 1.12489 17387 ft 334 kts 277°
2026-05-06 12:59 52.18477 1.08758 16989 ft 331 kts 277°
2026-05-06 12:59 52.18767 1.05051 16593 ft 329 kts 277°
2026-05-06 12:59 52.19050 1.01355 16200 ft 328 kts 277°
2026-05-06 12:59 52.19331 0.97681 15824 ft 326 kts 277°
2026-05-06 13:00 52.19610 0.94025 15565 ft 324 kts 277°
2026-05-06 13:00 52.19887 0.90396 15326 ft 323 kts 277°
2026-05-06 13:00 52.20164 0.86777 15075 ft 320 kts 277°
2026-05-06 13:00 52.20439 0.83173 14827 ft 320 kts 277°
2026-05-06 13:01 52.20712 0.79584 14580 ft 318 kts 277°
2026-05-06 13:01 52.20980 0.76017 14343 ft 316 kts 277°
2026-05-06 13:01 52.21242 0.72466 14100 ft 316 kts 277°
2026-05-06 13:01 52.21500 0.68941 13968 ft 307 kts 277°
2026-05-06 13:02 52.21747 0.65569 13982 ft 294 kts 277°
2026-05-06 13:02 52.21992 0.62254 13987 ft 295 kts 277°
2026-05-06 13:02 52.22239 0.58939 13924 ft 293 kts 277°
2026-05-06 13:02 52.22482 0.55659 13571 ft 290 kts 277°
2026-05-06 13:03 52.22718 0.52413 13191 ft 288 kts 277°
2026-05-06 13:03 52.22951 0.49175 12763 ft 287 kts 277°
2026-05-06 13:03 52.23183 0.45967 12433 ft 284 kts 278°
2026-05-06 13:03 52.23413 0.42781 12067 ft 281 kts 278°
2026-05-06 13:04 52.23642 0.39623 11711 ft 279 kts 277°
2026-05-06 13:04 52.23870 0.36466 11431 ft 281 kts 278°
2026-05-06 13:04 52.24095 0.33310 11178 ft 279 kts 278°
2026-05-06 13:04 52.24317 0.30160 10930 ft 279 kts 278°
2026-05-06 13:05 52.24538 0.27000 10677 ft 281 kts 277°
2026-05-06 13:05 52.24759 0.23827 10431 ft 281 kts 277°
2026-05-06 13:05 52.24979 0.20684 10187 ft 277 kts 278°
2026-05-06 13:05 52.25197 0.17571 9942 ft 276 kts 278°
2026-05-06 13:06 52.25415 0.14452 9682 ft 277 kts 278°
2026-05-06 13:06 52.25629 0.11391 9416 ft 273 kts 278°
2026-05-06 13:06 52.25841 0.08334 9173 ft 268 kts 278°
2026-05-06 13:06 52.26042 0.05371 9031 ft 258 kts 278°
2026-05-06 13:07 52.26236 0.02517 8895 ft 249 kts 277°
2026-05-06 13:07 52.26423 -0.00257 8665 ft 244 kts 278°
2026-05-06 13:07 52.26417 -0.03001 8396 ft 244 kts 259°
2026-05-06 13:07 52.25703 -0.05502 8138 ft 247 kts 232°
2026-05-06 13:08 52.24486 -0.07498 7999 ft 250 kts 226°
2026-05-06 13:08 52.23232 -0.09475 7995 ft 251 kts 226°
2026-05-06 13:08 52.21975 -0.11461 7998 ft 252 kts 227°
2026-05-06 13:08 52.20712 -0.13455 8002 ft 253 kts 226°
2026-05-06 13:09 52.19452 -0.15447 8002 ft 252 kts 226°
2026-05-06 13:09 52.18194 -0.17436 8003 ft 251 kts 226°
2026-05-06 13:09 52.16936 -0.19425 7747 ft 251 kts 226°
2026-05-06 13:09 52.15683 -0.21399 7502 ft 250 kts 225°
2026-05-06 13:10 52.14436 -0.23363 7240 ft 250 kts 225°
2026-05-06 13:10 52.13189 -0.25329 6998 ft 250 kts 225°
2026-05-06 13:10 52.11943 -0.27291 6751 ft 249 kts 225°
2026-05-06 13:10 52.10700 -0.29248 6508 ft 248 kts 225°
2026-05-06 13:11 52.09461 -0.31192 6249 ft 247 kts 225°
2026-05-06 13:11 52.08224 -0.33131 6067 ft 247 kts 225°
2026-05-06 13:11 52.06985 -0.35074 6022 ft 249 kts 225°
2026-05-06 13:11 52.05734 -0.37036 6029 ft 250 kts 225°
2026-05-06 13:12 52.04492 -0.38987 6028 ft 248 kts 225°
2026-05-06 13:12 52.03248 -0.40935 6029 ft 248 kts 225°
2026-05-06 13:12 52.02006 -0.42876 5999 ft 248 kts 225°
2026-05-06 13:12 52.00757 -0.44825 5729 ft 248 kts 225°
2026-05-06 13:13 51.99514 -0.46761 5463 ft 247 kts 226°
2026-05-06 13:13 51.98270 -0.48697 5204 ft 248 kts 225°
2026-05-06 13:13 51.97036 -0.50618 5035 ft 244 kts 226°
2026-05-06 13:13 51.95807 -0.52529 5009 ft 245 kts 225°
2026-05-06 13:14 51.94580 -0.54431 5006 ft 244 kts 225°
2026-05-06 13:14 51.93358 -0.56324 5023 ft 237 kts 225°
2026-05-06 13:14 51.92202 -0.58111 4941 ft 225 kts 226°
2026-05-06 13:14 51.91075 -0.59857 4670 ft 223 kts 226°
2026-05-06 13:15 51.89874 -0.61440 4336 ft 224 kts 206°
2026-05-06 13:15 51.88374 -0.61925 3982 ft 222 kts 173°
2026-05-06 13:15 51.86869 -0.61396 3792 ft 219 kts 162°
2026-05-06 13:15 51.85495 -0.60568 3564 ft 204 kts 144°
2026-05-06 13:16 51.84586 -0.58938 3203 ft 193 kts 114°
2026-05-06 13:16 51.84199 -0.56950 2929 ft 180 kts 91°
2026-05-06 13:16 51.84300 -0.55020 2700 ft 167 kts 70°
2026-05-06 13:16 51.84608 -0.53252 2479 ft 159 kts 69°
2026-05-06 13:17 51.84905 -0.51560 2281 ft 160 kts 69°
2026-05-06 13:17 51.85207 -0.49831 2061 ft 159 kts 70°
2026-05-06 13:17 51.85503 -0.48131 1840 ft 153 kts 68°
2026-05-06 13:17 51.85788 -0.46493 1629 ft 150 kts 69°
2026-05-06 13:18 51.85980 -0.45393 1485 ft 150 kts 69°
2026-05-06 13:18 51.86183 -0.44219 1333 ft 148 kts 70°
2026-05-06 13:18 51.86463 -0.42612 1113 ft 148 kts 69°
2026-05-06 13:18 51.86742 -0.41010 915 ft 148 kts 70°
2026-05-06 13:19 51.87014 -0.39440 694 ft 147 kts 69°
2026-05-06 13:19 51.87282 -0.37861 527 ft 141 kts 69°
2026-05-06 13:19 51.87497 -0.36658 526 ft 70 kts 74°
2026-05-06 13:19 51.87579 -0.36177 518 ft 35 kts 74°
2026-05-06 13:20 51.87634 -0.35932 516 ft 15 kts 39°
2026-05-06 13:20 51.87731 -0.35947 516 ft 15 kts 343°
2026-05-06 13:20 51.87782 -0.36074 518 ft 14 kts 268°
2026-05-06 13:20 51.87757 -0.36232 518 ft 16 kts 254°
2026-05-06 13:21 51.87726 -0.36409 519 ft 17 kts 255°
2026-05-06 13:21 51.87695 -0.36592 521 ft 17 kts 255°
2026-05-06 13:21 51.87668 -0.36753 523 ft 12 kts 254°
2026-05-06 13:21 51.87649 -0.36884 525 ft 12 kts 269°
2026-05-06 13:22 51.87716 -0.36973 521 ft 16 kts 342°
2026-05-06 13:22 51.87845 -0.37041 512 ft 21 kts 342°
2026-05-06 13:22 51.87968 -0.37106 509 ft 15 kts 342°
2026-05-06 13:22 51.88039 -0.37184 508 ft 11 kts 287°
2026-05-06 13:23 51.88041 -0.37291 508 ft 9 kts 307°
2026-05-06 13:23 51.88079 -0.37323 508 ft 2 kts 341°
2026-05-06 13:23 51.88089 -0.37328 508 ft 0 kts 342°